Tracking 20241 objects as of 26-Jan-2020
HD Live streaming from Space Station
objects crossing your sky now

COSMOS 2251 DEB

Track COSMOS 2251 DEB now!
10-day predictions


NORAD ID: 34674
Int'l Code: 1993-036XU
Perigee: 617.4 km
Apogee: 775.9 km
Inclination: 74.0 °
Period: 98.6 minutes
Semi major axis: 7067 km
RCS: 0.0033 m2 (small)
Launch date: June 16, 1993
Source: Commonwealth of Independent States (former USSR) (CIS)
Launch site: PLESETSK MISSILE AND SPACE COMPLEX (PKMTR)

Note: This is SATELLITE DEBRIS
aabbcc
Your satellite tracking list
Your tracking list is empty




NASA's NSSDC Master Catalog

Two Line Element Set (TLE):
1 34674U 93036XU  20025.41157581 +.00000604 +00000-0 +11847-3 0  9990
2 34674 073.9813 019.5369 0112147 132.0351 229.0428 14.61131478577384
Source of the keplerian elements: AFSPC